| time (UTC) | temp F | wind direction | speed knots | gust knots | rain 1hr in | rain 24hr in | rain mn in | humidity % | barometer mb |
| 20260507160124 | 64 | 68 | 0.0 | 1.7 | 0.00 | 0.00 | 0.00 | 29 | 1012.3 |
| 20260507155613 | 65 | 203 | 0.0 | 1.7 | 0.00 | 0.00 | 0.00 | 29 | 1012.4 |
| 20260507155103 | 65 | 225 | 0.0 | 1.7 | 0.00 | 0.00 | 0.00 | 29 | 1012.3 |
| 20260507154553 | 64 | 248 | 0.0 | 1.7 | 0.00 | 0.00 | 0.00 | 29 | 1012.4 |
| 20260507154045 | 64 | 180 | 0.0 | 1.7 | 0.00 | 0.00 | 0.00 | 30 | 1012.6 |
| 20260507153533 | 64 | 180 | 0.0 | 1.7 | 0.00 | 0.00 | 0.00 | 30 | 1012.8 |
| 20260507153023 | 63 | 225 | 0.0 | 1.7 | 0.00 | 0.00 | 0.00 | 30 | 1012.8 |
| 20260507152512 | 64 | 203 | 0.0 | 1.7 | 0.00 | 0.00 | 0.00 | 31 | 1012.7 |
| 20260507151452 | 63 | 248 | 0.0 | 1.7 | 0.00 | 0.00 | 0.00 | 34 | 1012.7 |
| 20260507150943 | 62 | 203 | 0.0 | 1.7 | 0.00 | 0.00 | 0.00 | 34 | 1012.6 |
| 20260507150432 | 62 | 203 | 0.0 | 1.7 | 0.00 | 0.00 | 0.00 | 35 | 1012.6 |
| 20260507145412 | 60 | 180 | 0.0 | 1.7 | 0.00 | 0.00 | 0.00 | 36 | 1012.3 |
| 20260507144902 | 60 | 180 | 0.0 | 1.7 | 0.00 | 0.00 | 0.00 | 37 | 1012.5 |
| 20260507144352 | 59 | 203 | 0.0 | 1.7 | 0.00 | 0.00 | 0.00 | 37 | 1012.6 |
| 20260507143842 | 59 | 225 | 0.0 | 1.7 | 0.00 | 0.00 | 0.00 | 37 | 1012.7 |
| 20260507143331 | 59 | 203 | 0.0 | 1.7 | 0.00 | 0.00 | 0.00 | 37 | 1012.5 |
| 20260507142821 | 59 | 203 | 0.0 | 1.7 | 0.00 | 0.00 | 0.00 | 38 | 1012.5 |
| 20260507142315 | 59 | 225 | 0.0 | 1.7 | 0.00 | 0.00 | 0.00 | 38 | 1012.5 |
| 20260507141251 | 59 | 225 | 0.0 | 1.7 | 0.00 | 0.00 | 0.00 | 38 | 1012.3 |
| 20260507140741 | 59 | 180 | 0.0 | 1.7 | 0.00 | 0.00 | 0.00 | 38 | 1012.5 |
| 20260507140231 | 58 | 225 | 0.0 | 0.0 | 0.00 | 0.00 | 0.00 | 39 | 1012.5 |
| 20260507135720 | 58 | 225 | 0.0 | 1.7 | 0.00 | 0.00 | 0.00 | 38 | 1012.2 |
| 20260507135210 | 58 | 225 | 0.0 | 1.7 | 0.00 | 0.00 | 0.00 | 38 | 1012.1 |
| 20260507134700 | 58 | 203 | 0.0 | 1.7 | 0.00 | 0.00 | 0.00 | 39 | 1012.2 |
| 20260507134150 | 58 | 225 | 0.0 | 1.7 | 0.00 | 0.00 | 0.00 | 40 | 1012.1 |
| 20260507133640 | 58 | 203 | 0.0 | 1.7 | 0.00 | 0.00 | 0.00 | 40 | 1012.2 |
| 20260507133130 | 58 | 203 | 0.0 | 1.7 | 0.00 | 0.00 | 0.00 | 39 | 1011.8 |
| 20260507132620 | 58 | 225 | 0.0 | 1.7 | 0.00 | 0.00 | 0.00 | 40 | 1011.8 |
| 20260507131049 | 58 | 203 | 0.0 | 1.7 | 0.00 | 0.00 | 0.00 | 41 | 1011.6 |
| 20260507130542 | 58 | 203 | 0.0 | 0.0 | 0.00 | 0.00 | 0.00 | 41 | 1011.7 |
| 20260507125520 | 58 | 248 | 0.0 | 1.7 | 0.00 | 0.00 | 0.00 | 41 | 1011.6 |
| 20260507125011 | 58 | 158 | 0.0 | 1.7 | 0.00 | 0.00 | 0.00 | 42 | 1011.4 |
| 20260507123949 | 58 | 225 | 0.0 | 3.5 | 0.00 | 0.00 | 0.00 | 43 | 1011.7 |
| 20260507123439 | 58 | 180 | 0.0 | 1.7 | 0.00 | 0.00 | 0.00 | 43 | 1011.4 |
| 20260507122929 | 58 | 180 | 0.0 | 1.7 | 0.00 | 0.00 | 0.00 | 43 | 1011.2 |
| 20260507122419 | 58 | 203 | 0.0 | 1.7 | 0.00 | 0.00 | 0.00 | 46 | 1011.5 |
| 20260507121908 | 58 | 203 | 0.0 | 1.7 | 0.00 | 0.00 | 0.00 | 47 | 1011.6 |
| 20260507121359 | 58 | 158 | 0.0 | 1.7 | 0.00 | 0.00 | 0.00 | 47 | 1011.7 |
| 20260507120848 | 58 | 135 | 0.0 | 1.7 | 0.00 | 0.00 | 0.00 | 46 | 1011.6 |
| 20260507115829 | 58 | 203 | 0.0 | 0.0 | 0.00 | 0.00 | 0.00 | 46 | 1012.3 |
| 20260507115319 | 59 | 203 | 0.0 | 0.0 | 0.00 | 0.00 | 0.00 | 46 | 1012.0 |
| 20260507114811 | 59 | 203 | 0.0 | 0.0 | 0.00 | 0.00 | 0.00 | 46 | 1011.5 |
| 20260507114258 | 59 | 203 | 0.0 | 0.0 | 0.00 | 0.00 | 0.00 | 45 | 1011.4 |
| 20260507113237 | 59 | 203 | 0.0 | 0.0 | 0.00 | 0.00 | 0.00 | 46 | 1011.2 |
| 20260507112727 | 59 | 203 | 0.0 | 3.5 | 0.00 | 0.00 | 0.00 | 46 | 1010.7 |
| 20260507112218 | 59 | 135 | 0.0 | 3.5 | 0.00 | 0.00 | 0.00 | 46 | 1010.4 |
| 20260507111706 | 59 | 225 | 0.0 | 1.7 | 0.00 | 0.00 | 0.00 | 45 | 1010.3 |
| 20260507110647 | 60 | 203 | 0.0 | 1.7 | 0.00 | 0.00 | 0.00 | 44 | 1009.9 |
| 20260507110137 | 60 | 225 | 0.0 | 1.7 | 0.00 | 0.00 | 0.00 | 45 | 1009.6 |
| 20260507105627 | 60 | 158 | 0.0 | 1.7 | 0.00 | 0.00 | 0.00 | 45 | 1009.6 |
| 20260507105117 | 60 | 180 | 0.0 | 3.5 | 0.00 | 0.00 | 0.00 | 45 | 1009.1 |
| 20260507104606 | 60 | 203 | 0.0 | 3.5 | 0.00 | 0.00 | 0.00 | 45 | 1009.1 |
| 20260507103547 | 61 | 203 | 0.0 | 1.7 | 0.00 | 0.00 | 0.00 | 44 | 1009.2 |
| 20260507103035 | 61 | 225 | 0.0 | 1.7 | 0.00 | 0.00 | 0.00 | 46 | 1009.3 |
| 20260507102525 | 61 | 135 | 0.0 | 1.7 | 0.00 | 0.00 | 0.00 | 46 | 1009.5 |
| 20260507102015 | 60 | 158 | 0.0 | 1.7 | 0.00 | 0.00 | 0.00 | 50 | 1008.8 |
| 20260507101507 | 59 | 203 | 0.0 | 1.7 | 0.00 | 0.00 | 0.00 | 54 | 1008.8 |
| 20260507100956 | 60 | 203 | 0.0 | 1.7 | 0.00 | 0.00 | 0.00 | 50 | 1008.7 |
| 20260507100445 | 60 | 203 | 0.0 | 1.7 | 0.00 | 0.00 | 0.00 | 50 | 1008.7 |
| 20260507095935 | 62 | 203 | 0.0 | 0.0 | 0.00 | 0.00 | 0.00 | 42 | 1009.1 |
| 20260507094915 | 62 | 158 | 0.0 | 1.7 | 0.00 | 0.00 | 0.00 | 44 | 1009.0 |
| 20260507094402 | 61 | 180 | 0.0 | 1.7 | 0.00 | 0.00 | 0.00 | 46 | 1008.9 |
| 20260507093344 | 61 | 203 | 0.0 | 0.0 | 0.00 | 0.00 | 0.00 | 48 | 1008.2 |
| 20260507092834 | 61 | 203 | 0.0 | 0.0 | 0.00 | 0.00 | 0.00 | 50 | 1008.1 |
| 20260507092324 | 61 | 203 | 0.0 | 1.7 | 0.00 | 0.00 | 0.00 | 50 | 1008.1 |
| 20260507091813 | 61 | 225 | 0.0 | 1.7 | 0.00 | 0.00 | 0.00 | 51 | 1007.9 |
| 20260507091304 | 60 | 135 | 0.0 | 1.7 | 0.00 | 0.00 | 0.00 | 53 | 1008.4 |
| 20260507090753 | 61 | 180 | 0.0 | 1.7 | 0.00 | 0.00 | 0.00 | 53 | 1008.2 |
| 20260507090244 | 61 | 158 | 0.0 | 0.0 | 0.00 | 0.00 | 0.00 | 53 | 1008.5 |
| 20260507085733 | 61 | 203 | 0.0 | 0.0 | 0.00 | 0.00 | 0.00 | 53 | 1008.5 |
| 20260507085224 | 61 | 158 | 0.0 | 0.0 | 0.00 | 0.00 | 0.00 | 53 | 1008.7 |
| 20260507084714 | 61 | 225 | 0.0 | 1.7 | 0.00 | 0.00 | 0.00 | 53 | 1008.7 |
| 20260507084203 | 61 | 225 | 0.0 | 1.7 | 0.00 | 0.00 | 0.00 | 53 | 1008.7 |
| 20260507082633 | 61 | 180 | 0.0 | 1.7 | 0.00 | 0.00 | 0.00 | 57 | 1008.4 |
| 20260507082123 | 62 | 180 | 0.0 | 1.7 | 0.00 | 0.00 | 0.00 | 57 | 1008.6 |
| 20260507081613 | 62 | 180 | 0.0 | 1.7 | 0.00 | 0.00 | 0.00 | 57 | 1008.4 |
| 20260507081103 | 62 | 135 | 0.0 | 0.0 | 0.00 | 0.00 | 0.00 | 57 | 1008.5 |
| 20260507080552 | 62 | 180 | 0.0 | 0.0 | 0.00 | 0.00 | 0.00 | 57 | 1008.4 |
| 20260507075533 | 62 | 203 | 0.0 | 0.0 | 0.00 | 0.00 | 0.00 | 57 | 1008.4 |
| 20260507075023 | 62 | 158 | 0.0 | 1.7 | 0.00 | 0.00 | 0.00 | 56 | 1008.5 |
| 20260507074514 | 63 | 158 | 0.0 | 1.7 | 0.00 | 0.00 | 0.00 | 56 | 1008.8 |
| 20260507074002 | 63 | 180 | 0.0 | 1.7 | 0.00 | 0.00 | 0.00 | 56 | 1008.5 |
| 20260507073454 | 63 | 225 | 0.0 | 1.7 | 0.00 | 0.00 | 0.00 | 57 | 1008.5 |
| 20260507072942 | 63 | 203 | 0.0 | 1.7 | 0.00 | 0.00 | 0.00 | 57 | 1008.7 |
| 20260507072434 | 64 | 113 | 0.0 | 1.7 | 0.00 | 0.00 | 0.00 | 59 | 1008.9 |
| 20260507071922 | 64 | 203 | 0.0 | 1.7 | 0.00 | 0.00 | 0.00 | 59 | 1008.5 |
| 20260507071412 | 64 | 180 | 0.0 | 0.0 | 0.00 | 0.00 | 0.00 | 59 | 1008.4 |
| 20260507070903 | 64 | 180 | 0.0 | 1.7 | 0.00 | 0.00 | 0.00 | 59 | 1008.4 |
| 20260507065841 | 64 | 203 | 0.0 | 1.7 | 0.00 | 0.00 | 0.00 | 59 | 1008.4 |
| 20260507065331 | 64 | 203 | 0.0 | 0.0 | 0.00 | 0.00 | 0.00 | 59 | 1008.2 |
| 20260507064820 | 64 | 203 | 0.0 | 1.7 | 0.00 | 0.00 | 0.00 | 61 | 1007.9 |
| 20260507063801 | 64 | 225 | 0.0 | 0.0 | 0.00 | 0.00 | 0.00 | 61 | 1008.1 |
| 20260507063251 | 65 | 225 | 0.0 | 1.7 | 0.00 | 0.00 | 0.00 | 60 | 1008.0 |
| 20260507062740 | 65 | 180 | 0.0 | 1.7 | 0.00 | 0.00 | 0.00 | 59 | 1008.0 |
| 20260507062230 | 65 | 203 | 0.0 | 1.7 | 0.00 | 0.00 | 0.00 | 60 | 1008.0 |
| 20260507061209 | 65 | 248 | 0.0 | 1.7 | 0.00 | 0.00 | 0.00 | 61 | 1007.7 |
| 20260507060149 | 66 | 203 | 0.0 | 1.7 | 0.00 | 0.00 | 0.00 | 61 | 1007.9 |
| 20260507055640 | 66 | 113 | 0.0 | 1.7 | 0.00 | 0.00 | 0.00 | 62 | 1007.8 |
| 20260507055129 | 66 | 203 | 0.0 | 1.7 | 0.00 | 0.00 | 0.00 | 64 | 1007.9 |
| 20260507054109 | 66 | 180 | 0.0 | 1.7 | 0.00 | 0.00 | 0.00 | 67 | 1007.6 |
| 20260507053559 | 66 | 180 | 0.0 | 0.0 | 0.00 | 0.00 | 0.00 | 68 | 1007.9 |
| 20260507053052 | 66 | 203 | 0.0 | 0.0 | 0.00 | 0.00 | 0.00 | 67 | 1007.6 |
| 20260507052539 | 66 | 270 | 0.0 | 1.7 | 0.00 | 0.00 | 0.00 | 66 | 1007.7 |
| 20260507052029 | 66 | 225 | 0.0 | 1.7 | 0.00 | 0.00 | 0.00 | 67 | 1007.7 |
| 20260507051529 | 67 | 225 | 0.0 | 1.7 | 0.00 | 0.00 | 0.00 | 66 | 1007.7 |
| 20260507051009 | 67 | 248 | 0.0 | 1.7 | 0.00 | 0.00 | 0.00 | 66 | 1007.4 |
| 20260507050459 | 67 | 180 | 0.0 | 1.7 | 0.00 | 0.00 | 0.00 | 67 | 1007.5 |
| 20260507045438 | 67 | 203 | 0.0 | 3.5 | 0.00 | 0.00 | 0.00 | 68 | 1007.3 |
| 20260507044928 | 67 | 203 | 0.0 | 1.7 | 0.00 | 0.00 | 0.00 | 69 | 1007.3 |
| 20260507044419 | 67 | 158 | 0.0 | 1.7 | 0.00 | 0.00 | 0.00 | 69 | 1007.0 |
| 20260507043358 | 67 | 270 | 0.0 | 3.5 | 0.00 | 0.00 | 0.00 | 71 | 1007.0 |
| 20260507042849 | 67 | 180 | 0.9 | 3.5 | 0.00 | 0.00 | 0.00 | 71 | 1007.1 |
| 20260507042338 | 67 | 180 | 0.0 | 1.7 | 0.00 | 0.00 | 0.00 | 72 | 1007.0 |
| 20260507041828 | 67 | 225 | 0.0 | 1.7 | 0.00 | 0.00 | 0.00 | 72 | 1007.0 |
| 20260507041318 | 68 | 180 | 0.0 | 1.7 | 0.00 | 0.00 | 0.00 | 72 | 1007.1 |
| 20260507040807 | 68 | 203 | 0.0 | 1.7 | 0.00 | 0.00 | 0.00 | 71 | 1007.0 |
| 20260507040257 | 68 | 203 | 0.0 | 1.7 | 0.00 | 0.00 | 0.00 | 71 | 1006.7 |
| 20260507035748 | 68 | 203 | 0.0 | 1.7 | 0.00 | 0.00 | 0.00 | 71 | 1006.6 |
| 20260507035236 | 68 | 203 | 0.0 | 1.7 | 0.00 | 0.00 | 0.00 | 70 | 1006.8 |
| 20260507034726 | 68 | 180 | 0.0 | 1.7 | 0.00 | 0.00 | 0.00 | 71 | 1007.0 |
| 20260507034218 | 69 | 203 | 0.0 | 1.7 | 0.00 | 0.00 | 0.00 | 71 | 1006.5 |
| 20260507033157 | 69 | 225 | 0.0 | 3.5 | 0.00 | 0.00 | 0.00 | 73 | 1006.7 |
| 20260507032647 | 69 | 293 | 0.0 | 3.5 | 0.00 | 0.00 | 0.00 | 73 | 1007.0 |
| 20260507031116 | 70 | 225 | 0.0 | 6.1 | 0.00 | 0.00 | 0.00 | 75 | 1006.1 |
| 20260507030606 | 71 | 203 | 0.0 | 6.1 | 0.00 | 0.00 | 0.00 | 79 | 1006.2 |
| 20260507030056 | 70 | 180 | 0.0 | 3.5 | 0.00 | 0.00 | 0.00 | 81 | 1005.9 |
| 20260507025547 | 70 | 203 | 0.0 | 1.7 | 0.00 | 0.00 | 0.00 | 84 | 1005.7 |
| 20260507025036 | 70 | 158 | 0.0 | 1.7 | 0.00 | 0.00 | 0.00 | 85 | 1005.5 |
| 20260507024526 | 70 | 135 | 0.0 | 0.0 | 0.00 | 0.00 | 0.00 | 86 | 1005.6 |
| 20260507024015 | 70 | 180 | 0.0 | 1.7 | 0.00 | 0.00 | 0.00 | 85 | 1005.7 |
| 20260507023505 | 71 | 203 | 0.0 | 1.7 | 0.00 | 0.00 | 0.00 | 86 | 1005.9 |
| 20260507022955 | 70 | 225 | 0.0 | 0.0 | 0.00 | 0.00 | 0.00 | 88 | 1005.8 |
| 20260507022445 | 69 | 158 | 0.0 | 1.7 | 0.00 | 0.00 | 0.00 | 91 | 1006.1 |
| 20260507021936 | 71 | 158 | 0.0 | 1.7 | 0.00 | 0.00 | 0.00 | 89 | 1005.8 |
| 20260507021425 | 70 | 180 | 0.0 | 1.7 | 0.00 | 0.00 | 0.00 | 91 | 1005.7 |
| 20260507020914 | 69 | 113 | 0.0 | 1.7 | 0.00 | 0.00 | 0.00 | 93 | 1005.9 |
| 20260507020438 | 69 | 135 | 0.0 | 0.0 | 0.00 | 0.00 | 0.00 | 94 | 1006.0 |
| 20260507015854 | 68 | 135 | 0.0 | 1.7 | 0.00 | 0.00 | 0.00 | 95 | 1005.7 |
| 20260507015344 | 68 | 180 | 0.0 | 1.7 | 0.00 | 0.00 | 0.00 | 96 | 1005.5 |
| 20260507014835 | 67 | 180 | 0.0 | 0.0 | 0.00 | 0.00 | 0.00 | 96 | 1005.5 |
| 20260507014324 | 67 | 180 | 0.0 | 0.0 | 0.00 | 0.00 | 0.00 | 96 | 1005.4 |
| 20260507013815 | 68 | 158 | 0.0 | 0.0 | 0.00 | 0.00 | 0.00 | 95 | 1005.3 |
| 20260507012753 | 68 | 158 | 0.0 | 0.0 | 0.00 | 0.00 | 0.00 | 94 | 1005.4 |
| 20260507012244 | 69 | 180 | 0.0 | 1.7 | 0.00 | 0.00 | 0.00 | 94 | 1005.7 |
| 20260507011735 | 69 | 203 | 0.0 | 1.7 | 0.00 | 0.00 | 0.00 | 94 | 1005.4 |
| 20260507011224 | 68 | 203 | 0.0 | 0.0 | 0.00 | 0.00 | 0.00 | 94 | 1005.6 |
| 20260507010714 | 67 | 225 | 0.0 | 1.7 | 0.00 | 0.00 | 0.00 | 94 | 1005.6 |
| 20260507010204 | 67 | 225 | 0.0 | 1.7 | 0.00 | 0.00 | 0.00 | 94 | 1005.3 |
| 20260507005144 | 67 | 135 | 0.0 | 0.0 | 0.00 | 0.00 | 0.00 | 93 | 1004.9 |
| 20260507004633 | 68 | 135 | 0.0 | 0.0 | 0.00 | 0.00 | 0.00 | 92 | 1005.1 |
| 20260507004122 | 68 | 180 | 0.0 | 0.0 | 0.00 | 0.00 | 0.00 | 91 | 1005.3 |
| 20260507003615 | 68 | 180 | 0.0 | 0.0 | 0.00 | 0.00 | 0.00 | 91 | 1005.0 |
| 20260507003104 | 68 | 180 | 0.0 | 0.0 | 0.00 | 0.00 | 0.00 | 91 | 1005.0 |
| 20260507002553 | 68 | 203 | 0.0 | 1.7 | 0.00 | 0.00 | 0.00 | 91 | 1004.9 |
| 20260507002044 | 68 | 203 | 0.0 | 1.7 | 0.00 | 0.00 | 0.00 | 91 | 1005.0 |
| 20260507001022 | 67 | 135 | 0.0 | 1.7 | 0.00 | 0.00 | 0.00 | 91 | 1004.6 |
| 20260507000512 | 66 | 68 | 0.0 | 0.0 | 0.00 | 0.00 | 0.00 | 91 | 1004.4 |
| 20260507000004 | 66 | 68 | 0.0 | 0.0 | 0.00 | 0.00 | 0.00 | 91 | 1004.2 |
| 20260506234943 | 67 | 68 | 0.0 | 0.0 | 0.00 | 0.00 | 0.00 | 89 | 1004.2 |
| 20260506234432 | 67 | 68 | 0.0 | 0.0 | 0.00 | 0.00 | 0.00 | 89 | 1004.0 |
| 20260506233923 | 68 | 68 | 0.0 | 0.0 | 0.00 | 0.00 | 0.00 | 88 | 1004.1 |
| 20260506233412 | 68 | 68 | 0.0 | 0.0 | 0.00 | 0.00 | 0.00 | 89 | 1004.0 |
| 20260506232901 | 68 | 68 | 0.0 | 0.0 | 0.00 | 0.00 | 0.00 | 89 | 1004.1 |
| 20260506231842 | 69 | 68 | 0.0 | 0.0 | 0.00 | 0.00 | 0.00 | 87 | 1004.0 |
| 20260506231331 | 69 | 45 | 0.0 | 0.0 | 0.00 | 0.00 | 0.00 | 86 | 1004.1 |
| 20260506230311 | 70 | 45 | 0.0 | 0.0 | 0.00 | 0.00 | 0.00 | 85 | 1003.6 |
| 20260506225801 | 70 | 45 | 0.0 | 0.0 | 0.00 | 0.00 | 0.00 | 85 | 1003.7 |
| 20260506225251 | 70 | 45 | 0.0 | 0.0 | 0.00 | 0.00 | 0.00 | 84 | 1003.7 |
| 20260506224740 | 70 | 45 | 0.0 | 0.0 | 0.00 | 0.00 | 0.00 | 83 | 1003.3 |
| 20260506224231 | 71 | 45 | 0.0 | 0.0 | 0.00 | 0.00 | 0.00 | 82 | 1002.9 |
| 20260506223211 | 73 | 45 | 0.0 | 0.0 | 0.00 | 0.00 | 0.00 | 80 | 1002.4 |
| 20260506222700 | 73 | 45 | 0.0 | 0.0 | 0.00 | 0.00 | 0.00 | 80 | 1002.4 |
| 20260506222150 | 74 | 45 | 0.0 | 0.0 | 0.00 | 0.00 | 0.00 | 79 | 1002.4 |
| 20260506221640 | 74 | 45 | 0.0 | 0.0 | 0.00 | 0.00 | 0.00 | 78 | 1002.1 |
| 20260506221129 | 74 | 45 | 0.0 | 0.0 | 0.00 | 0.00 | 0.00 | 77 | 1002.1 |
| 20260506220620 | 75 | 45 | 0.0 | 0.0 | 0.00 | 0.00 | 0.00 | 77 | 1001.8 |
| 20260506220109 | 75 | 45 | 0.0 | 0.0 | 0.00 | 0.00 | 0.00 | 77 | 1001.9 |
| 20260506215600 | 75 | 45 | 0.0 | 0.0 | 0.00 | 0.00 | 0.00 | 76 | 1001.9 |
| 20260506215049 | 76 | 45 | 0.0 | 0.0 | 0.00 | 0.00 | 0.00 | 76 | 1001.9 |
| 20260506214539 | 76 | 45 | 0.0 | 0.0 | 0.00 | 0.00 | 0.00 | 75 | 1001.9 |
| 20260506214029 | 77 | 45 | 0.0 | 0.0 | 0.00 | 0.00 | 0.00 | 74 | 1001.7 |
| 20260506213519 | 78 | 45 | 0.0 | 0.0 | 0.00 | 0.00 | 0.00 | 73 | 1002.1 |
| 20260506213009 | 78 | 45 | 0.0 | 0.0 | 0.00 | 0.00 | 0.00 | 72 | 1001.9 |
| 20260506212459 | 80 | 45 | 0.0 | 0.0 | 0.00 | 0.00 | 0.00 | 70 | 1001.8 |
| 20260506211949 | 80 | 45 | 0.0 | 0.0 | 0.00 | 0.00 | 0.00 | 69 | 1001.6 |
| 20260506210418 | 81 | 45 | 0.0 | 1.7 | 0.00 | 0.00 | 0.00 | 68 | 1001.4 |
| 20260506205908 | 82 | 45 | 0.0 | 1.7 | 0.00 | 0.00 | 0.00 | 68 | 1001.7 |
| 20260506205358 | 82 | 23 | 0.0 | 0.0 | 0.00 | 0.00 | 0.00 | 66 | 1001.8 |
| 20260506204337 | 83 | 45 | 0.0 | 0.0 | 0.00 | 0.00 | 0.00 | 65 | 1001.6 |
| 20260506203827 | 83 | 45 | 0.0 | 0.0 | 0.00 | 0.00 | 0.00 | 65 | 1001.6 |
| 20260506203317 | 84 | 45 | 0.0 | 0.0 | 0.00 | 0.00 | 0.00 | 63 | 1001.5 |
| 20260506202808 | 84 | 23 | 0.0 | 0.0 | 0.00 | 0.00 | 0.00 | 62 | 1001.8 |
| 20260506202257 | 84 | 23 | 0.0 | 0.0 | 0.00 | 0.00 | 0.00 | 63 | 1001.7 |
| 20260506201748 | 84 | 23 | 0.0 | 0.0 | 0.00 | 0.00 | 0.00 | 62 | 1001.7 |
| 20260506201237 | 85 | 23 | 0.0 | 0.0 | 0.00 | 0.00 | 0.00 | 61 | 1001.7 |
| 20260506200728 | 85 | 23 | 0.0 | 0.0 | 0.00 | 0.00 | 0.00 | 61 | 1001.9 |
| 20260506200217 | 85 | 23 | 0.0 | 0.0 | 0.00 | 0.00 | 0.00 | 61 | 1001.8 |
| 20260506195707 | 85 | 0 | 0.0 | 0.0 | 0.00 | 0.00 | 0.00 | 62 | 1002.1 |
| 20260506195156 | 85 | 23 | 0.0 | 0.0 | 0.00 | 0.00 | 0.00 | 61 | 1002.2 |
| 20260506194144 | 86 | 0 | 0.0 | 0.0 | 0.00 | 0.00 | 0.00 | 59 | 1002.1 |
| 20260506192607 | 86 | 23 | 0.0 | 0.0 | 0.00 | 0.00 | 0.00 | 59 | 1002.1 |
| 20260506192056 | 86 | 45 | 0.0 | 0.0 | 0.00 | 0.00 | 0.00 | 58 | 1002.3 |
| 20260506191546 | 86 | 23 | 0.0 | 0.0 | 0.00 | 0.00 | 0.00 | 59 | 1002.5 |
| 20260506191038 | 86 | 0 | 0.0 | 0.0 | 0.00 | 0.00 | 0.00 | 59 | 1002.6 |
| 20260506190017 | 86 | 0 | 0.0 | 0.0 | 0.00 | 0.00 | 0.00 | 58 | 1002.8 |
| 20260506185505 | 86 | 338 | 0.0 | 0.0 | 0.00 | 0.00 | 0.00 | 58 | 1002.7 |
| 20260506184956 | 85 | 0 | 0.0 | 0.0 | 0.00 | 0.00 | 0.00 | 59 | 1003.1 |
| 20260506184445 | 86 | 0 | 0.0 | 0.0 | 0.00 | 0.00 | 0.00 | 58 | 1003.1 |
| 20260506183935 | 86 | 0 | 0.0 | 0.0 | 0.00 | 0.00 | 0.00 | 58 | 1003.0 |
| 20260506183425 | 86 | 23 | 0.0 | 0.0 | 0.00 | 0.00 | 0.00 | 59 | 1003.1 |
| 20260506182915 | 85 | 0 | 0.0 | 0.0 | 0.00 | 0.00 | 0.00 | 60 | 1003.0 |
| 20260506182406 | 85 | 0 | 0.0 | 0.0 | 0.00 | 0.00 | 0.00 | 60 | 1003.2 |
| 20260506181855 | 85 | 0 | 0.0 | 0.0 | 0.00 | 0.00 | 0.00 | 61 | 1003.4 |
| 20260506181345 | 85 | 23 | 0.0 | 0.0 | 0.00 | 0.00 | 0.00 | 61 | 1003.6 |
| 20260506180834 | 85 | 0 | 0.0 | 0.0 | 0.00 | 0.00 | 0.00 | 61 | 1003.5 |
| 20260506180324 | 85 | 0 | 0.0 | 0.0 | 0.00 | 0.00 | 0.00 | 61 | 1003.6 |
| 20260506175813 | 85 | 0 | 0.0 | 0.0 | 0.00 | 0.00 | 0.00 | 60 | 1003.8 |
| 20260506175306 | 86 | 0 | 0.0 | 0.0 | 0.00 | 0.00 | 0.00 | 61 | 1003.7 |
| 20260506174754 | 85 | 0 | 0.0 | 0.0 | 0.00 | 0.00 | 0.00 | 62 | 1003.7 |
| 20260506173734 | 84 | 23 | 0.0 | 0.0 | 0.00 | 0.00 | 0.00 | 63 | 1004.0 |
| 20260506173224 | 85 | 338 | 0.0 | 0.0 | 0.00 | 0.00 | 0.00 | 62 | 1004.2 |
| 20260506172203 | 84 | 0 | 0.0 | 0.0 | 0.00 | 0.00 | 0.00 | 64 | 1004.0 |
| 20260506171653 | 84 | 0 | 0.0 | 0.0 | 0.00 | 0.00 | 0.00 | 63 | 1004.0 |
| 20260506171143 | 83 | 23 | 0.0 | 0.0 | 0.00 | 0.00 | 0.00 | 65 | 1004.1 |
| 20260506170633 | 83 | 23 | 0.0 | 0.0 | 0.00 | 0.00 | 0.00 | 65 | 1004.1 |
| 20260506170124 | 83 | 338 | 0.0 | 0.0 | 0.00 | 0.00 | 0.00 | 67 | 1004.4 |
| 20260506165614 | 83 | 0 | 0.0 | 0.0 | 0.00 | 0.00 | 0.00 | 66 | 1004.2 |
| 20260506165102 | 82 | 23 | 0.0 | 0.0 | 0.00 | 0.00 | 0.00 | 68 | 1004.4 |
| 20260506164552 | 83 | 0 | 0.0 | 0.0 | 0.00 | 0.00 | 0.00 | 69 | 1004.6 |
| 20260506164042 | 82 | 338 | 0.0 | 0.0 | 0.00 | 0.00 | 0.00 | 70 | 1004.8 |
| 20260506163532 | 81 | 45 | 0.0 | 0.0 | 0.00 | 0.00 | 0.00 | 73 | 1004.9 |
| 20260506163022 | 81 | 338 | 0.0 | 5.2 | 0.00 | 0.00 | 0.00 | 73 | 1005.0 |
| 20260506162513 | 80 | 23 | 0.0 | 5.2 | 0.00 | 0.00 | 0.00 | 76 | 1005.1 |
| 20260506162002 | 79 | 0 | 0.0 | 3.5 | 0.00 | 0.00 | 0.00 | 79 | 1005.4 |
| 20260506161452 | 79 | 338 | 0.0 | 1.7 | 0.00 | 0.00 | 0.00 | 77 | 1005.3 |
| 20260506160942 | 80 | 0 | 0.0 | 1.7 | 0.00 | 0.00 | 0.00 | 79 | 1005.5 |
| 20260506160432 | 79 | 23 | 0.0 | 0.0 | 0.00 | 0.00 | 0.00 | 80 | 1005.7 |